Retour au catalogue

ATLAS 5 CENTAUR R/B

ActifHEO
NORAD 40947·ROCKET BODY·🇺🇸 United States

Lancé Oct 2, 2015 depuis Cape Canaveral Space Force Station

Loading…

Prochains Passages (prochaines 24 heures)

TLE

FraisSource: Space-Track

Époque: Sep 14, 2026, 08:08 UTC

1 40947U 15056B   26257.33941111 -.00000114  00000-0  00000-0 0  9993
2 40947  26.0497  73.0559 5936002 139.1046 285.5756  2.04875597 81972

Suivez ATLAS 5 CENTAUR R/B en temps réel avec AllMySat

Download on the App Store